Aberdeen, United Kingdom

3:27 AM BST on October 15, 2019 (GMT +0100)
Dyce

Weather History for EGPD - September, 2019

Change the Weather History Date:

Sunday, September 15, 2019

  Actual Average Record
Temperature  
Mean Temperature 51 °F -  
Max Temperature 60 °F 57 °F 71 °F (2003)
Min Temperature 42 °F 44 °F 35 °F (2007)
Degree Days  
Heating Degree Days 14    
Growing Degree Days 1 (Base 50)    
Moisture  
Dew Point 40 °F    
Average Humidity 57    
Maximum Humidity 81    
Minimum Humidity 32    
Precipitation  
Precipitation 0.00 in 0.10 in - ()
Sea Level Pressure  
Sea Level Pressure 30.06 in    
Wind  
Wind Speed 12 mph ()    
Max Wind Speed 23 mph    
Max Gust Speed 29 mph    
Visibility 8.1 miles    
Events      
Averages and records for this station are not official NWS values.
T = Trace of Precipitation, MM = Missing Value Source: Averaged Metar Reports

Daily Weather History Graph

Daily Weather History Graph

Search for Another Location

Airport or City:

Astronomy

Sep. 15, 2019 Rise Set
Actual Time 6:38 AM BST 7:28 PM BST
Civil Twilight 5:59 AM BST 8:07 PM BST
Nautical Twilight 5:12 AM BST 8:54 PM BST
Astronomical Twilight 4:19 AM BST 9:46 PM BST
Moon 8:21 PM BST 7:36 AM BST
Length of Visible Light 14h 07m
Length of Day
12h 49m
Full, 99% of the Moon is Illuminated
Sep 15
Full
Sep 22
Last Quarter
Sep 28
New
Oct 5
First Quarter
Oct 13
Full

Hourly Weather History & Observations

Time (BST) Temp. Windchill Dew Point Humidity Pressure Visibility Wind Dir Wind Speed Gust Speed Precip Events Conditions
12:00 AM 56 °F - 47 °F 62% 29.96 in 31 mi WNW 10.4 mph - -   Mostly Cloudy
12:20 AM 55.4 °F - 44.6 °F 67% 29.95 in 6.2 mi West 10.4 mph - N/A   Unknown
12:50 AM 55.4 °F - 42.8 °F 63% 29.95 in 6.2 mi West 11.5 mph - N/A   Unknown
1:00 AM 48 °F - 38 °F 57% 30.14 in 22 mi West 9.2 mph - -  
1:20 AM 55.4 °F - 42.8 °F 63% 29.95 in 6.2 mi West 17.3 mph - N/A   Unknown
1:50 AM 53.6 °F - 42.8 °F 67% 29.95 in 6.2 mi WNW 16.1 mph - N/A   Unknown
2:00 AM 54 °F - 42 °F 52% 29.95 in 12 mi WNW 16.1 mph - -   Mostly Cloudy
2:20 AM 53.6 °F - 42.8 °F 67% 29.95 in 6.2 mi West 16.1 mph - N/A   Partly Cloudy
2:50 AM 53.6 °F - 41.0 °F 62% 29.95 in 6.2 mi West 18.4 mph - N/A   Partly Cloudy
3:00 AM 54 °F - 41 °F 50% 29.96 in 12 mi West 19.6 mph - -   Scattered Clouds
3:20 AM 51.8 °F - 39.2 °F 62% 29.98 in 6.2 mi West 15.0 mph - N/A   Unknown
3:50 AM 51.8 °F - 39.2 °F 62% 29.98 in 6.2 mi West 13.8 mph - N/A   Unknown
4:00 AM 52 °F - 39 °F 50% 29.99 in 11 mi West 15.0 mph - -  
4:20 AM 51.8 °F - 39.2 °F 62% 29.98 in 6.2 mi West 15.0 mph - N/A   Unknown
4:50 AM 51.8 °F - 41.0 °F 67% 29.98 in 6.2 mi West 15.0 mph - N/A   Unknown
5:00 AM 52 °F - 40 °F 53% 29.99 in 11 mi West 15.0 mph - -  
5:20 AM 51.8 °F - 41.0 °F 67% 29.98 in - West 6.9 mph - N/A   Clear
5:50 AM 51.8 °F - 39.2 °F 62% 30.01 in 6.2 mi West 15.0 mph - N/A   Scattered Clouds
6:00 AM 52 °F - 39 °F 49% 29.99 in 10 mi West 15.0 mph - -   Scattered Clouds
6:20 AM 51.8 °F - 39.2 °F 62% 30.01 in 6.2 mi WNW 11.5 mph - N/A   Unknown
6:50 AM 50.0 °F - 37.4 °F 62% 30.01 in 6.2 mi West 13.8 mph - N/A   Unknown
7:00 AM 51 °F - 38 °F 49% 30.01 in 11 mi West 15.0 mph - -  
7:20 AM 51.8 °F - 39.2 °F 62% 29.98 in 6.2 mi West 17.3 mph - N/A   Unknown
7:50 AM 51.8 °F - 39.2 °F 62% 30.01 in 6.2 mi West 15.0 mph 28.8 mph N/A   Unknown
8:00 AM 52 °F - 38 °F 48% 30.01 in 9 mi West 16.1 mph - -   Mostly Cloudy
8:20 AM 51.8 °F - 39.2 °F 62% 30.01 in 6.2 mi West 19.6 mph - N/A   Unknown
8:50 AM 51.8 °F - 37.4 °F 58% 30.01 in 6.2 mi West 21.9 mph - N/A   Unknown
9:00 AM 53 °F - 37 °F 43% 30.01 in 11 mi West 23.0 mph - -   Mostly Cloudy
9:20 AM 53.6 °F - 39.2 °F 58% 30.04 in 6.2 mi West 15.0 mph - N/A   Unknown
9:50 AM 53.6 °F - 39.2 °F 58% 30.04 in 6.2 mi West 11.5 mph 28.8 mph N/A   Unknown
10:00 AM 53 °F - 38 °F 46% 30.06 in 9 mi West 11.5 mph - -   Overcast
10:20 AM 53.6 °F - 39.2 °F 58% 30.06 in 6.2 mi West 9.2 mph - N/A   Unknown
10:50 AM 53.6 °F - 39.2 °F 58% 30.06 in 6.2 mi West 15.0 mph - N/A   Unknown
11:00 AM 53 °F - 38 °F 46% 30.07 in 9 mi WNW 15.0 mph - -   Overcast
11:20 AM 53.6 °F - 39.2 °F 58% 30.09 in 6.2 mi WNW 11.5 mph - N/A   Partly Cloudy
11:50 AM 53.6 °F - 39.2 °F 58% 30.09 in 6.2 mi West 11.5 mph - N/A   Unknown
12:00 PM 54 °F - 39 °F 45% 30.10 in 11 mi WNW 12.7 mph - -   Overcast
12:20 PM 55.4 °F - 41.0 °F 58% 30.09 in 6.2 mi WNW 12.7 mph - N/A   Unknown
12:50 PM 55.4 °F - 41.0 °F 58% 30.12 in 6.2 mi West 15.0 mph 27.6 mph N/A   Scattered Clouds
1:00 PM 55 °F - 40 °F 46% 30.12 in 9 mi West 15.0 mph - -   Overcast
1:20 PM 57.2 °F - 41.0 °F 55% 30.09 in 6.2 mi WNW 11.5 mph - N/A   Partly Cloudy
1:50 PM 59.0 °F - 42.8 °F 55% 30.09 in 6.2 mi West 15.0 mph - N/A   Partly Cloudy
2:00 PM 59 °F - 41 °F 41% 30.10 in 19 mi West 16.1 mph - -   Mostly Cloudy
2:20 PM 57.2 °F - 41.0 °F 55% 30.09 in 6.2 mi NW 17.3 mph - N/A   Partly Cloudy
2:50 PM 60.8 °F - 41.0 °F 48% 30.09 in - WNW 17.3 mph - N/A   Clear
3:00 PM 60 °F - 38 °F 32% 30.09 in 22 mi WNW 17.3 mph - -   Scattered Clouds
3:20 PM 59.0 °F - 39.2 °F 48% 30.09 in - West 12.7 mph - N/A   Clear
3:50 PM 59.0 °F - 39.2 °F 48% 30.09 in - NW 16.1 mph - N/A   Clear
4:00 PM 58 °F - 38 °F 36% 30.10 in 16 mi NW 16.1 mph - -   Mostly Cloudy
4:20 PM 59.0 °F - 41.0 °F 51% 30.09 in 6.2 mi WNW 17.3 mph - N/A   Unknown
4:50 PM 59.0 °F - 41.0 °F 51% 30.09 in 6.2 mi WNW 11.5 mph - N/A   Unknown
5:00 PM 58 °F - 39 °F 37% 30.10 in 19 mi NW 11.5 mph - -   Partly Cloudy
5:50 PM 55.4 °F - 39.2 °F 54% 30.09 in 6.2 mi NW 8.1 mph - N/A   Unknown
6:20 PM 55.4 °F - 39.2 °F 54% 30.09 in 6.2 mi NW 4.6 mph - N/A   Unknown
6:50 PM 55.4 °F - 39.2 °F 54% 30.12 in 6.2 mi West 4.6 mph - N/A   Unknown
7:00 PM 55 °F - 40 °F 45% 30.12 in 15 mi WNW 4.6 mph - -   Mostly Cloudy
7:20 PM 53.6 °F - 41.0 °F 62% 30.12 in 6.2 mi West 9.2 mph - N/A   Scattered Clouds
7:50 PM 53.6 °F - 41.0 °F 62% 30.12 in 6.2 mi WNW 12.7 mph - N/A   Unknown
8:00 PM 53 °F - 40 °F 51% 30.13 in 13 mi WNW 12.7 mph - -   Scattered Clouds
8:20 PM 51.8 °F - 41.0 °F 67% 30.12 in 6.2 mi WNW 4.6 mph - N/A   Unknown
8:50 PM 50.0 °F - 39.2 °F 66% 30.12 in 6.2 mi WNW 5.8 mph - N/A   Unknown
9:00 PM 51 °F - 39 °F 54% 30.14 in 14 mi WNW 6.9 mph - -  
9:20 PM 48.2 °F - 39.2 °F 71% 30.12 in 6.2 mi West 6.9 mph - N/A   Unknown
9:50 PM 48.2 °F - 39.2 °F 71% 30.15 in 6.2 mi West 6.9 mph - N/A   Unknown
10:20 PM 46.4 °F 45.2 °F 37.4 °F 71% 30.15 in 6.2 mi Variable 3.5 mph - N/A   Unknown
10:50 PM 44.6 °F 42.2 °F 37.4 °F 76% 30.12 in 6.2 mi SW 4.6 mph - N/A   Unknown
11:00 PM 48 °F - 38 °F 58% 30.15 in 17 mi WSW 4.6 mph - -  
11:20 PM 42.8 °F 39.3 °F 37.4 °F 81% 30.15 in 6.2 mi SSW 5.8 mph - N/A   Unknown
11:50 PM 44.6 °F 42.2 °F 37.4 °F 76% 30.12 in 6.2 mi SW 4.6 mph - N/A   Unknown